Starlink 30148

operational
NORAD ID: 57617 Int'l Des: 2023-119 Owner: SPXS Country: US Constellation: starlink
LEOCIRCULAR

Über Starlink 30148

Beschreibung wird geladen...

Live-Position

3D-Globus wird geladen...

Nächste Überflüge

Höhenverlauf

Altitude vs Time

uPlot chart will show altitude changes over time

Zweizeiliger Elementsatz

1 57617U 23119R 25258.21137489 .00000486 00000-0 51035-4 0 9995
2 57617 43.0046 315.6098 0001352 271.9542 88.1145 15.02539176116686
Epoch: 15. Sept. 2025 • Age: 13 hours

Aktueller Status

Höhe 559.0 km
Geschwindigkeit 7.59 km/s
Subsatellitenpunkt 22.07°N, 73.59°E
Startdatum 11. Aug. 2023
Alter 2 years
Typ internet

Technische Details

Klassifizierung Payload
Masse 730.00 kg
Trockenmasse 700.00 kg
Gesamtmasse 730.00 kg
Länge 0.30 m
Durchmesser 4.10 m
Spannweite 29.00 m
Form Box + pan
Hersteller SPXS
Bus-Typ Starlink V2M
Phasenstatus In Orbit
Besitzer/Staat SPXS/US

Große Konstellationen

Loading constellations...